Location: Riverton
(43.0250°N, 108.3790°W)
Time: 21:33:45
(UTC-06:00)

FO-29 - Visible Passes

Search period start: 28 April 2017 00:00
Search period end: 08 May 2017 00:00
Orbit: 799 x 1322 km, 98.6° (Epoch: 27 April)

Date Brightness Start Highest point End Pass type
(mag) Time Alt. Az. Time Alt. Az. Time Alt. Az.
28 Apr 10.3 00:36:04 10° N 00:40:42 35° WNW 00:40:42 35° WNW visible
28 Apr 9.3 23:40:34 10° NNE 23:45:03 65° NE 23:45:03 65° NE visible
29 Apr 11.5 01:27:41 10° NNW 01:30:21 14° WNW 01:31:32 13° WNW visible
29 Apr 10.5 22:46:04 10° NE 22:49:23 25° ENE 22:49:23 25° ENE visible
30 Apr 10.2 00:30:55 10° N 00:35:45 39° WNW 00:35:52 39° WNW visible
30 Apr 9.3 23:35:29 10° NNE 23:40:13 68° ENE 23:40:13 68° ENE visible
01 May 11.4 01:22:20 10° NNW 01:25:22 16° WNW 01:26:43 14° WNW visible
01 May 10.5 22:41:04 10° NE 22:44:34 24° E 22:44:34 24° E visible
02 May 10.0 00:25:46 10° N 00:30:43 42° WNW 00:31:03 42° W visible
02 May 9.2 23:30:24 10° NNE 23:35:25 67° E 23:35:25 67° E visible
03 May 11.3 01:17:02 10° NNW 01:20:23 17° WNW 01:21:54 15° W visible
03 May 10.5 22:36:04 10° NE 22:39:46 24° E 22:39:46 24° E visible
04 May 9.9 00:20:37 10° N 00:25:41 46° WNW 00:26:15 44° W visible
04 May 9.3 23:25:19 10° NNE 23:30:37 64° E 23:30:37 64° E visible
05 May 11.3 01:11:45 10° NNW 01:15:23 19° WNW 01:17:06 16° W visible
05 May 10.6 22:31:05 10° NE 22:34:59 22° E 22:34:59 22° E visible
06 May 9.9 00:15:29 10° N 00:20:40 50° WNW 00:21:28 47° W visible
06 May 9.3 23:20:14 10° NNE 23:25:38 60° ESE 23:25:50 59° ESE visible
07 May 11.2 01:06:29 10° NNW 01:10:24 21° WNW 01:12:20 17° W visible
07 May 10.7 22:26:06 10° NE 22:30:13 21° E 22:30:13 21° E visible
